GW2438 Weather Reports


Display with metric or nautical units.
time (UTC)temp
F
wind
direction
speed
MPH
gust
MPH
rain 1hr
in
rain 24hr
in
rain mn
in
humidity
%
barometer
mb
20260510054551 59 320 0.0 1.0 0.00 0.00 0.00 69 1016.3
20260510053549 59 320 0.0 1.0 0.00 0.00 0.00 68 1016.2
20260510052608 59 320 0.0 1.0 0.00 0.00 0.00 68 1016.3
20260510051546 59 0.0 0.0 0.00 0.00 0.00 68 1016.2
20260510050544 59 336 0.0 1.0 0.00 0.00 0.00 68 1016.1
20260510045542 59 0.0 0.0 0.00 0.00 0.00 68 1016.1
20260510044540 60 0.0 0.0 0.00 0.00 0.00 67 1016.2
20260510043539 60 337 0.0 1.0 0.00 0.00 0.00 66 1016.2
20260510042537 60 0.0 0.0 0.00 0.00 0.00 65 1016.2
20260510041535 61 307 0.0 2.0 0.00 0.00 0.00 65 1016.2
20260510040554 61 328 0.0 2.0 0.00 0.00 0.00 64 1016.1
20260510035532 61 349 1.0 2.0 0.00 0.00 0.00 64 1016.0
20260510034530 62 340 1.0 2.0 0.00 0.00 0.00 62 1015.9
20260510033529 62 348 1.0 3.0 0.00 0.00 0.00 62 1016.0
20260510032527 63 348 2.0 4.0 0.00 0.00 0.00 60 1015.9
20260510031525 63 353 1.0 3.0 0.00 0.00 0.00 59 1016.0
20260510030524 64 352 2.0 3.0 0.00 0.00 0.00 58 1016.0
20260510025522 64 328 1.0 2.0 0.00 0.00 0.00 57 1016.1
20260510024520 65 328 1.0 1.0 0.00 0.00 0.00 55 1016.1
20260510023519 65 326 1.0 2.0 0.00 0.00 0.00 54 1016.3
20260510022517 66 8 2.0 3.0 0.00 0.00 0.00 53 1016.4
20260510021615 66 343 2.0 4.0 0.00 0.00 0.00 52 1016.4
20260510020613 67 348 0.0 1.0 0.00 0.00 0.00 51 1016.4
20260510015612 67 347 2.0 3.0 0.00 0.00 0.00 49 1016.6
20260510014610 67 345 2.0 3.0 0.00 0.00 0.00 48 1016.6
20260510013608 68 350 1.0 3.0 0.00 0.00 0.00 51 1017.0
20260510012607 68 308 1.0 3.0 0.00 0.00 0.00 49 1017.1
20260510011626 69 6 1.0 3.0 0.00 0.00 0.00 50 1017.2
20260510010623 69 359 2.0 6.0 0.00 0.00 0.00 50 1017.3
20260510005622 69 330 1.0 4.0 0.00 0.00 0.00 50 1017.3
20260510004600 69 349 1.0 3.0 0.00 0.00 0.00 50 1017.2
20260510003558 69 7 1.0 3.0 0.00 0.00 0.00 50 1017.6
20260510002622 69 2 1.0 3.0 0.00 0.00 0.00 51 1017.6
20260510001555 69 16 3.0 4.0 0.00 0.00 0.00 51 1017.6
20260510000553 69 347 2.0 4.0 0.00 0.00 0.00 51 1017.8
20260509235552 69 8 3.0 7.0 0.00 0.00 0.00 51 1017.8
20260509234549 69 309 1.0 3.0 0.00 0.00 0.00 53 1018.1
20260509233547 69 343 1.0 3.0 0.00 0.00 0.00 53 1018.1
20260509232546 69 4 1.0 3.0 0.00 0.00 0.00 55 1018.1
20260509231544 68 5 2.0 6.0 0.00 0.00 0.00 54 1018.3
20260509230543 68 344 3.0 6.0 0.00 0.00 0.00 54 1018.3
20260509225541 69 6 3.0 7.0 0.00 0.00 0.00 55 1018.6
20260509224539 68 355 2.0 7.0 0.00 0.00 0.00 55 1018.8
20260509223538 68 354 4.0 7.0 0.00 0.00 0.00 54 1018.8
20260509222536 69 319 2.0 6.0 0.00 0.00 0.00 55 1019.2
20260509221534 69 12 3.0 7.0 0.00 0.00 0.00 52 1019.0
20260509220532 68 336 1.0 6.0 0.00 0.00 0.00 54 1019.3
20260509215530 68 359 3.0 7.0 0.00 0.00 0.00 52 1019.2
20260509214549 68 6 3.0 8.0 0.00 0.00 0.00 51 1019.2
20260509213527 68 6 2.0 6.0 0.00 0.00 0.00 51 1019.2
20260509212546 68 354 1.0 4.0 0.00 0.00 0.00 51 1019.6
20260509211524 68 30 2.0 4.0 0.00 0.00 0.00 53 1019.4
20260509210522 68 4 4.0 8.0 0.00 0.00 0.00 53 1019.5
20260509205521 68 341 2.0 7.0 0.00 0.00 0.00 55 1019.5
20260509204519 68 357 2.0 6.0 0.00 0.00 0.00 54 1019.7
20260509203537 67 315 1.0 2.0 0.00 0.00 0.00 56 1019.7
20260509202615 66 324 2.0 4.0 0.00 0.00 0.00 56 1019.8
20260509201614 66 354 2.0 6.0 0.00 0.00 0.00 57 1019.9
20260509200612 66 337 2.0 6.0 0.00 0.00 0.00 57 1020.0
20260509195610 66 3 2.0 8.0 0.00 0.00 0.00 60 1020.2
20260509194629 65 356 3.0 8.0 0.00 0.00 0.00 59 1020.4
20260509193607 65 345 2.0 4.0 0.00 0.00 0.00 60 1020.5
20260509192625 64 357 3.0 7.0 0.00 0.00 0.00 60 1020.6
20260509191603 64 20 3.0 9.0 0.00 0.00 0.00 61 1020.7
20260509190601 63 346 3.0 6.0 0.00 0.00 0.00 61 1020.8
20260509185619 63 2 4.0 6.0 0.00 0.00 0.00 61 1020.9
20260509184618 63 351 4.0 8.0 0.00 0.00 0.00 62 1020.9
20260509183556 62 359 4.0 7.0 0.00 0.00 0.00 66 1020.9
20260509182554 62 8 4.0 9.0 0.00 0.00 0.00 66 1020.9
20260509181612 62 1 5.0 8.0 0.00 0.00 0.00 66 1020.9
20260509180611 62 2 4.0 8.0 0.00 0.00 0.00 68 1021.0
20260509175608 62 340 1.0 4.0 0.00 0.00 0.00 69 1021.1
20260509174547 61 10 4.0 7.0 0.00 0.00 0.00 70 1021.2
20260509173545 61 1 3.0 6.0 0.00 0.00 0.00 69 1021.2
20260509172604 61 10 3.0 6.0 0.00 0.00 0.00 70 1021.3
20260509171622 60 345 2.0 3.0 0.00 0.00 0.00 70 1021.3
20260509170540 60 15 1.0 3.0 0.00 0.00 0.00 72 1021.3
20260509165538 60 5 3.0 6.0 0.00 0.00 0.00 74 1021.3
20260509164537 59 355 3.0 7.0 0.00 0.00 0.00 72 1021.5
20260509163535 60 4 3.0 6.0 0.00 0.00 0.00 72 1021.7
20260509162533 60 11 2.0 8.0 0.00 0.00 0.00 71 1021.6
20260509161551 61 21 1.0 3.0 0.00 0.00 0.00 70 1021.7
20260509160550 60 35 1.0 2.0 0.00 0.00 0.00 70 1021.7
20260509155528 61 72 1.0 1.0 0.00 0.00 0.00 69 1021.9
20260509154546 63 57 1.0 3.0 0.00 0.00 0.00 65 1022.1
20260509153524 65 96 1.0 3.0 0.00 0.00 0.00 63 1022.2
20260509152523 67 121 0.0 1.0 0.00 0.00 0.00 61 1022.1
20260509151521 71 99 1.0 3.0 0.00 0.00 0.00 58 1022.1
20260509150519 72 156 1.0 2.0 0.00 0.00 0.00 63 1022.2
20260509145518 69 168 1.0 2.0 0.00 0.00 0.00 69 1022.4
20260509144516 64 192 1.0 2.0 0.00 0.00 0.00 76 1022.4
20260509143614 59 194 0.0 1.0 0.00 0.00 0.00 89 1022.4
20260509142613 52 193 0.0 1.0 0.00 0.00 0.00 91 1022.4
20260509141611 51 195 1.0 2.0 0.00 0.00 0.00 91 1022.4
20260509140609 49 250 1.0 2.0 0.00 0.00 0.00 91 1022.5
20260509135608 48 251 1.0 2.0 0.00 0.00 0.00 91 1022.5
20260509134606 48 251 0.0 1.0 0.00 0.00 0.00 91 1022.6
20260509133704 47 0.0 0.0 0.00 0.00 0.00 90 1022.6
20260509132623 47 0.0 0.0 0.00 0.00 0.00 90 1022.7
20260509131601 47 0.0 0.0 0.00 0.00 0.00 90 1022.7
20260509130619 47 0.0 0.0 0.00 0.00 0.00 90 1022.7
20260509125557 46 0.0 0.0 0.00 0.00 0.00 90 1022.6
20260509124615 46 0.0 0.0 0.00 0.00 0.00 89 1022.6
20260509123554 46 0.0 0.0 0.00 0.00 0.00 89 1022.6
20260509122552 46 0.0 0.0 0.00 0.00 0.00 88 1022.5
20260509121550 47 0.0 0.0 0.00 0.00 0.00 88 1022.5
20260509120549 47 0.0 0.0 0.00 0.00 0.00 88 1022.7
20260509115547 48 0.0 0.0 0.00 0.00 0.00 88 1022.9
20260509114546 48 0.0 0.0 0.00 0.00 0.00 88 1022.7
20260509113544 47 0.0 0.0 0.00 0.00 0.00 87 1022.7
20260509112542 48 0.0 0.0 0.00 0.00 0.00 87 1022.7
20260509111540 48 0.0 0.0 0.00 0.00 0.00 87 1022.7
20260509110558 48 0.0 0.0 0.00 0.00 0.00 87 1022.8
20260509105537 48 0.0 0.0 0.00 0.00 0.00 86 1022.9
20260509104555 48 0.0 0.0 0.00 0.00 0.00 85 1022.9
20260509103533 49 0.0 0.0 0.00 0.00 0.00 84 1022.9
20260509102531 49 0.0 0.0 0.00 0.00 0.00 84 1022.8
20260509101530 50 0.0 0.0 0.00 0.00 0.00 83 1023.1
20260509100528 51 0.0 0.0 0.00 0.00 0.00 83 1023.0
20260509095526 51 0.0 0.0 0.00 0.00 0.00 83 1023.1
20260509094525 51 0.0 0.0 0.00 0.00 0.00 83 1023.2
20260509093543 51 0.0 0.0 0.00 0.00 0.00 81 1023.2
20260509092521 52 251 0.0 1.0 0.00 0.00 0.00 81 1023.3
20260509091540 52 251 0.0 1.0 0.00 0.00 0.00 81 1023.3
20260509090518 53 251 0.0 1.0 0.00 0.00 0.00 81 1023.4
20260509085516 53 244 1.0 1.0 0.00 0.00 0.00 82 1023.3
20260509084614 53 239 2.0 4.0 0.00 0.00 0.00 82 1023.4
20260509083617 53 229 1.0 3.0 0.00 0.00 0.00 82 1023.5
20260509082611 53 237 1.0 2.0 0.00 0.00 0.00 82 1023.4
20260509081609 53 237 1.0 2.0 0.00 0.00 0.00 82 1023.5
20260509080608 53 236 1.0 2.0 0.00 0.00 0.00 82 1023.4
20260509075606 52 225 1.0 3.0 0.00 0.00 0.00 82 1023.3
20260509074604 52 223 1.0 1.0 0.00 0.00 0.00 82 1023.2
20260509073622 52 231 1.0 2.0 0.00 0.00 0.00 82 1023.3
20260509072601 52 216 1.0 1.0 0.00 0.00 0.00 82 1023.3
20260509071559 52 229 1.0 2.0 0.00 0.00 0.00 82 1023.2
20260509070557 52 232 1.0 2.0 0.00 0.00 0.00 82 1023.2
20260509065555 51 235 0.0 1.0 0.00 0.00 0.00 81 1023.3
20260509064634 52 0.0 0.0 0.00 0.00 0.00 81 1023.2
20260509063551 52 209 0.0 1.0 0.00 0.00 0.00 81 1023.2
20260509062550 52 216 0.0 1.0 0.00 0.00 0.00 81 1023.2
20260509061548 52 0.0 0.0 0.00 0.00 0.00 80 1023.1
20260509060546 52 213 1.0 2.0 0.00 0.00 0.00 80 1023.0
20260509055545 52 237 1.0 2.0 0.00 0.00 0.00 79 1023.0